Location: Maccacari
(45.1333°N, 11.1333°E)
Time: 19:25:04
(UTC+00:00)

Tiros 1 despin weight - Pass Details

Date: 21 January 2021
Orbit: 593 x 642 km, 48.2° (Epoch: 26 February)

Event Time Altitude Azimuth Distance (km) Brightness Sun altitude
Rises 14:25:00 0° 223° (SW) 2,878 ? 13.5°
Reaches altitude 10° 14:27:24 10° 216° (SW) 1,967 ? 13.2°
Maximum altitude 14:31:37 40° 147° (SSE) 900 ? 12.7°
Drops below altitude 10° 14:35:48 10° 78° (ENE) 1,947 ? 12.2°
Sets 14:38:11 0° 70° (ENE) 2,846 ? 11.9°
